Weather History for Gainesville, GA

Change the Weather History Date:

Wednesday, May 1, 2013

  Actual Average Record
Temperature  
Mean Temperature 63 °F 64 °F  
Max Temperature 68 °F 75 °F 89 °F (1951)
Min Temperature 58 °F 54 °F 38 °F (1935)
Degree Days  
Heating Degree Days 2 3  
Month to date heating degree days 2 3  
Since 1 July heating degree days 195 3028  
Cooling Degree Days 0 2  
Month to date cooling degree days 0 2  
Year to date cooling degree days 31 41  
Growing Degree Days 14 (Base 50)    
Moisture  
Dew Point 54 °F    
Average Humidity 74    
Maximum Humidity 90    
Minimum Humidity 58    
Precipitation  
Precipitation 0.00 in 0.12 in 1.46 in (1932)
Month to date precipitation 0.00 0.12  
Year to date precipitation 6.85 19.00  
Snow  
Snow 0.00 in - - ()
Month to date snowfall 0.0  
Since 1 July snowfall 0.0  
Snow Depth 0.00 in    
Sea Level Pressure  
Sea Level Pressure 30.18 in    
Wind  
Wind Speed 12 mph (ENE)    
Max Wind Speed 20 mph    
Max Gust Speed 26 mph    
Visibility 10 miles    
Events      
T = Trace of Precipitation, MM = Missing Value Source: NWS Daily Summary

Daily Weather History Graph

Daily Weather History Graph

Search for Another Location

Airport:

Trip Planner

Search our weather history database for the weather conditions in past years. The results will help you decide how hot, cold, wet, or windy it might be!

Date:

Astronomy

May. 01, 2013 Rise Set
Actual Time 6:45 AM EDT 8:19 PM EDT
Civil Twilight 6:18 AM EDT 8:46 PM EDT
Nautical Twilight 5:46 AM EDT 9:18 PM EDT
Astronomical Twilight 5:12 AM EDT 9:52 PM EDT
Moon 1:27 AM EDT (5/1) 12:22 PM EDT (5/1)
Length of Visible Light 14h 27m
Length of Day
13h 34m
Waning Gibbous, 59% of the Moon is Illuminated
May 1
Waning Gibbous
May 2
Last Quarter
May 9
New
May 18
First Quarter
May 25
Full

Hourly Weather History & Observations

Time (EDT) Temp. Dew Point Humidity Pressure Visibility Wind Dir Wind Speed Gust Speed Precip Events Conditions
12:53 AM 62.1 °F 57.0 °F 84% 30.14 in 10.0 mi ENE 5.8 mph - N/A   Clear
1:53 AM 61.0 °F 57.0 °F 87% 30.14 in 9.0 mi ENE 5.8 mph - N/A   Clear
2:26 AM 60.8 °F 57.2 °F 88% 30.16 in 8.0 mi ENE 6.9 mph - N/A   Mostly Cloudy
2:46 AM 60.8 °F 57.2 °F 88% 30.16 in 8.0 mi ENE 8.1 mph - N/A   Overcast
2:53 AM 61.0 °F 57.0 °F 87% 30.12 in 8.0 mi ENE 8.1 mph - N/A   Overcast
3:20 AM 60.8 °F 57.2 °F 88% 30.16 in 8.0 mi ENE 11.5 mph 19.6 mph N/A   Overcast
3:53 AM 60.1 °F 57.0 °F 90% 30.12 in 8.0 mi East 9.2 mph - N/A   Mostly Cloudy
4:04 AM 60.8 °F 55.4 °F 82% 30.15 in 8.0 mi ENE 10.4 mph 19.6 mph N/A   Mostly Cloudy
4:14 AM 60.8 °F 55.4 °F 82% 30.15 in 8.0 mi East 9.2 mph 18.4 mph N/A   Mostly Cloudy
5:06 AM 60.8 °F 55.4 °F 82% 30.16 in 9.0 mi East 11.5 mph - N/A   Overcast
5:53 AM 59.0 °F 54.0 °F 83% 30.12 in 10.0 mi ENE 11.5 mph 19.6 mph N/A   Overcast
6:03 AM 59.0 °F 53.6 °F 82% 30.16 in 10.0 mi East 11.5 mph 18.4 mph N/A   Overcast
6:12 AM 59.0 °F 53.6 °F 82% 30.16 in 10.0 mi ENE 12.7 mph 20.7 mph N/A   Overcast
6:37 AM 59.0 °F 53.6 °F 82% 30.16 in 10.0 mi ENE 10.4 mph - N/A   Overcast
6:53 AM 59.0 °F 53.1 °F 81% 30.14 in 9.0 mi ENE 9.2 mph - N/A   Overcast
7:51 AM 59.0 °F 51.8 °F 77% 30.20 in 10.0 mi East 11.5 mph - N/A   Overcast
8:01 AM 59.0 °F 53.6 °F 82% 30.20 in 10.0 mi ENE 10.4 mph 20.7 mph N/A   Mostly Cloudy
8:36 AM 59.0 °F 53.6 °F 82% 30.23 in 10.0 mi ENE 11.5 mph 21.9 mph N/A   Mostly Cloudy
8:53 AM 59.0 °F 52.0 °F 78% 30.21 in 10.0 mi East 11.5 mph 19.6 mph N/A   Overcast
9:05 AM 59.0 °F 51.8 °F 77% 30.23 in 10.0 mi East 15.0 mph 20.7 mph N/A   Overcast
9:53 AM 62.1 °F 53.1 °F 72% 30.20 in 10.0 mi East 15.0 mph 20.7 mph N/A   Overcast
11:53 AM 66.0 °F 52.0 °F 60% 30.20 in 10.0 mi East 16.1 mph 25.3 mph N/A   Scattered Clouds
12:18 PM 64.4 °F 51.8 °F 64% 30.23 in 10.0 mi ENE 13.8 mph 23.0 mph N/A   Mostly Cloudy
12:42 PM 66.2 °F 51.8 °F 60% 30.23 in 10.0 mi ENE 10.4 mph 26.5 mph N/A   Mostly Cloudy
12:53 PM 66.9 °F 53.1 °F 61% 30.21 in 10.0 mi East 13.8 mph 23.0 mph N/A   Mostly Cloudy
1:53 PM 66.0 °F 52.0 °F 60% 30.20 in 10.0 mi ENE 12.7 mph 19.6 mph N/A   Overcast
2:53 PM 68.0 °F 53.1 °F 59% 30.20 in 10.0 mi ESE 12.7 mph 18.4 mph N/A   Mostly Cloudy
5:53 PM 66.0 °F 52.0 °F 60% 30.16 in 10.0 mi East 12.7 mph 19.6 mph N/A   Clear
6:53 PM 64.0 °F 52.0 °F 65% 30.15 in 10.0 mi East 12.7 mph - N/A   Clear
7:53 PM 63.0 °F 52.0 °F 67% 30.16 in 10.0 mi ENE 10.4 mph - N/A   Clear
8:53 PM 61.0 °F 52.0 °F 72% 30.19 in 10.0 mi East 8.1 mph - N/A   Clear
9:53 PM 60.1 °F 53.1 °F 78% 30.21 in 10.0 mi East 9.2 mph - N/A   Scattered Clouds
10:53 PM 60.1 °F 52.0 °F 75% 30.21 in 10.0 mi East 9.2 mph - N/A   Partly Cloudy
11:53 PM 57.9 °F 53.1 °F 84% 30.21 in 10.0 mi East 11.5 mph - N/A   Clear